Карабаш

Россия / Челябинская область     55°29′28″N   60°12′11″E
темп.,
°C
ветер,
м/с
пор.,
м/с
влажн.,
%
обл.,
%
осадки,
мм/ч
давл.,
гПа
погр.,
м
6 мая, чт
чт623:00+7з714745 0.3 10031275
02:00+5з613725 0.0 10061188
05:00+4з5127859 0.0 10081016
08:00+5з6137185 0.0 10101137
11:00+9зсз713508 0.0 10111588
14:00+11зсз8124452 0.0 10131851
17:00+10зсз7104421 0.0 10151689
20:00+9зсз511495 0.0 10161415
7 мая, пт
пт723:00+7з412722 0.0 1018568
02:00+4з24835 0.0 102092
05:00+3зюз229370 0.0 102224
08:00+9зюз24655 0.0 1022368
11:00+15з234336 0.0 10211298
14:00+18зюз23315 0.0 10201834
17:00+19зюз12274 0.0 10192191
20:00+14ю12455 0.0 101961
8 мая, сб
сб823:00+10з1158100 0.0 102011
02:00+9зсз1163100 0.0 102010
05:00+8сз1171100 0.0 102010
08:00+12с1259100 0.0 1020222
11:00+17в114197 0.0 10191061
14:00+19в332891 0.0 10182766
17:00+19в442789 0.0 10172567
20:00+14св244479 0.0 101884
9 мая, вс
вс923:00+10с255994 0.0 101989
02:00+9с2373100 0.0 101944
05:00+9ссз2272100 0.0 101918
08:00+13ссв255882 0.0 1019322
11:00+18св363859 0.0 10182311
14:00+19всв3532100 0.0 10182596
17:00+18с344166 0.0 10181206
20:00+15всв225217 0.0 101942
10 мая, пн
пн1023:00+10ссз217928 0.0 102115
02:00+9сз228013 0.0 102117
05:00+10ссз227575 0.0 102255
08:00+14ссз13625 0.0 1023341
11:00+19всв22424 0.0 10221525
14:00+20вюв2135100 0.0 10222243
17:00+19юз113996 0.0 10221476
20:00+16юз2252100 0.0 102220